Powrót do katalogu

COSMOS 2251 DEB

AktywnyVLEO
NORAD 34861·DEBRIS·🇷🇺 Russia

Wystrzelony Jun 16, 1993 z Plesetsk Cosmodrome

Loading…

Następne Przeloty (najbliższe 24 godziny)

TLE

Starzejące sięSource: Space-Track

Epoka: Sep 13, 2026, 19:10 UTC

1 34861U 93036ACF 26256.79925344  .00648970  00000-0  42973-2 0  9998
2 34861  73.9872 188.7769 0022088 186.7415 200.2782 15.73337901922854

Śledź COSMOS 2251 DEB w czasie rzeczywistym z AllMySat

Download on the App Store